{"data":{"norad_id":69195,"intl_designator":"2026-114P","name":"STARLINK-37166","alt_names":[],"object_type":"PAYLOAD","status":"ACTIVE","operator":null,"country":"US","launch_date":"2026-05-25","launch_site_code":"AFETR","launch_vehicle":null,"mission":null,"orbit_class":"UNKNOWN","rcs_meters":null,"size_class":null,"mass_kg":null,"dimensions":null,"purposes":["comms"],"wikipedia_slug":null,"has_3d_model":false,"image_url":null,"decayed_at":null,"tle_current":{"epoch":"2026-09-20T00:41:41.333568Z","epoch_age_seconds":67733,"freshness":"FRESH","line1":"1 69195U 26114P   26263.02895062  .00013439  00000+0  40798-3 0  9995","line2":"2 69195  53.1564 115.9372 0001048  83.8861 276.2261 15.34413306 19377","mean_motion":15.34413306,"eccentricity":0.0001048,"inclination_deg":53.1564,"raan_deg":115.9372,"arg_perigee_deg":83.8861,"mean_anomaly_deg":276.2261,"bstar":0.00040798,"rev_number":1937,"period_min":93.84694426001,"perigee_km":461.94677634424,"apogee_km":463.38060816933,"semimajor_km":6840.8006922568,"source":"CELESTRAK","updated_at":"2026-09-20T09:00:44.098256Z"}}}